Printer-friendly version

IAU Minor Planet Center

Minor Planet Center

MPEC 2003-H16 : COMET P/2003 CP7 (LINEAR-NEAT)

The following Minor Planet Electronic Circular may be linked-to from your own Web pages, but must not otherwise be redistributed electronically.


Read MPEC 2003-H15 Read MPEC 2003-H17


M.P.E.C. 2003-H16                                Issued 2003 Apr. 23, 19:11 UT

     The Minor Planet Electronic Circulars contain information on unusual
         minor planets and routine data on comets.  They are published
   on behalf of Commission 20 of the International Astronomical Union by the
          Minor Planet Center, Smithsonian Astrophysical Observatory,
                          Cambridge, MA 02138, U.S.A.

             Prepared using the Tamkin Foundation Computer Network

                              MPC@CFA.HARVARD.EDU
          URL http://cfa-www.harvard.edu/iau/mpc.html  ISSN 1523-6714

                        COMET P/2003 CP7 (LINEAR-NEAT)

Observations:
    PK03C07P  C2003 04 10.12675 10 55 52.99 +18 12 54.2          19.4 T      691
    PK03C07P  C2003 04 10.15368 10 55 52.58 +18 12 56.7          19.3 T      691
    PK03C07P  C2003 04 10.18167 10 55 52.14 +18 13 00.2          19.2 T      691
    PK03C07P  C2003 04 20.83625 10 54 27.35 +18 22 42.1                      246
    PK03C07P  C2003 04 20.83712 10 54 27.36 +18 22 42.4                      246
    PK03C07P  C2003 04 20.83837 10 54 27.33 +18 22 42.2                      246
    PK03C07P  C2003 04 20.83925 10 54 27.32 +18 22 42.7                      246
    PK03C07P  C2003 04 20.84008 10 54 27.35 +18 22 42.2                      246
    PK03C07P  C2003 04 20.84096 10 54 27.35 +18 22 42.4                      246
    PK03C07P  C2003 04 20.88171 10 54 27.34 +18 22 43.1          18.2 T      213
    PK03C07P  C2003 04 20.88582 10 54 27.33 +18 22 42.6          18.2 T      213
    PK03C07P  C2003 04 20.88998 10 54 27.20 +18 22 45.1          18.2 T      213
    PK03C07P  C2003 04 21.50500 10 54 26.71 +18 22 40.0          18.5 T      360
    PK03C07P  C2003 04 21.51111 10 54 26.72 +18 22 40.0                      360
    PK03C07P  C2003 04 21.51625 10 54 26.67 +18 22 39.3                      360

Observer details:
213 Observatorio Montcabre.  Observer R. Naves.  Measurer M. Campas.  0.30-m
    f/5.5 Schmidt-Cassegrain + CCD.
246 Klet Observatory-KLENOT.  Observers J. Ticha, M. Tichy.  1.06-m KLENOT
    Telescope + CCD.
360 Kuma Kogen.  Observer A. Nakamura.  0.60-m f/5.8 Ritchey-Chretien + CCD.
691 Steward Observatory, Kitt Peak.  Observer R. S. McMillan.  0.9-m f/3
    reflector + CCD.

Orbital elements:
    P/2003 CP7 (LINEAR-NEAT)
T 2003 Apr. 29.7100 TT                                  MPC
q   3.016745             (2000.0)            P               Q
n   0.1224396      Peri.   42.7005      -0.9859114      -0.0604486
a   4.016566       Node   133.1225      +0.0190083      -0.9668650
e   0.248924       Incl.   12.3381      +0.1661848      -0.2480282
P   8.05
From 106 observations 2003 Feb. 1-Apr. 21.

Brian G. Marsden             (C) Copyright 2003 MPC           M.P.E.C. 2003-H16

Read MPEC 2003-H15 Read MPEC 2003-H17


Our Web policy. Index to the CBAT/MPC/ICQ pages.


Valid HTML 4.01!